Gary, IN

3:07 AM CDT on July 21, 2017 (GMT -0500)
Gary / Chicago

Weather History for KGYY - August, 2013

Change the Weather History Date:

Monday, August 19, 2013

  Actual Average Record
Temperature  
Mean Temperature 70 °F -  
Max Temperature 84 °F 82 °F 91 °F (1960)
Min Temperature 55 °F 64 °F 55 °F (1964)
Cooling Degree Days 4    
Growing Degree Days 20 (Base 50)    
Moisture  
Dew Point 58 °F    
Average Humidity 72    
Maximum Humidity 94    
Minimum Humidity 37    
Precipitation  
Precipitation 0.00 in - - ()
Sea Level Pressure  
Sea Level Pressure 30.10 in    
Wind  
Wind Speed 1 mph (SSW)    
Max Wind Speed 9 mph    
Max Gust Speed -    
Visibility 8 miles    
Events      
Averages and records for this station are not official NWS values.
T = Trace of Precipitation, MM = Missing Value Source: NWS Daily Summary

Daily Weather History Graph

Daily Weather History Graph

Search for Another Location

Airport or City:

Trip Planner

Search our weather history database for the weather conditions in past years. The results will help you decide how hot, cold, wet, or windy it might be!

Date:

Astronomy

Aug. 19, 2013 Rise Set
Actual Time 6:02 AM CDT 7:43 PM CDT
Civil Twilight 5:33 AM CDT 8:12 PM CDT
Nautical Twilight 4:57 AM CDT 8:48 PM CDT
Astronomical Twilight 4:19 AM CDT 9:26 PM CDT
Moon 6:33 PM CDT (8/19) 4:20 AM CDT (8/19)
Length of Visible Light 14h 39m
Length of Day
13h 40m
Waxing Gibbous, 97% of the Moon is Illuminated
Aug 19
Waxing Gibbous
Aug 20
Full
Aug 28
Last Quarter
Sep 5
New
Sep 12
First Quarter

Hourly Weather History & Observations

Time (CDT) Temp. Heat Index Dew Point Humidity Pressure Visibility Wind Dir Wind Speed Gust Speed Precip Events Conditions
12:15 AM 60.3 °F - 57.4 °F 90% 30.13 in 7.0 mi Calm Calm - N/A   Clear
12:35 AM 60.4 °F - 57.4 °F 90% 30.12 in 7.0 mi Calm Calm - N/A   Clear
12:55 AM 59.2 °F - 56.5 °F 91% 30.12 in 7.0 mi Calm Calm - N/A   Clear
1:15 AM 59.7 °F - 57.0 °F 91% 30.12 in 5.0 mi Calm Calm - N/A   Clear
1:35 AM 59.5 °F - 56.8 °F 91% 30.12 in 7.0 mi Calm Calm - N/A   Clear
1:55 AM 59.9 °F - 57.4 °F 91% 30.12 in 5.0 mi Calm Calm - N/A   Clear
2:15 AM 59.0 °F - 56.5 °F 91% 30.12 in 5.0 mi Calm Calm - N/A   Clear
2:35 AM 58.8 °F - 56.3 °F 91% 30.12 in 4.0 mi Calm Calm - N/A   Clear
2:55 AM 58.6 °F - 56.3 °F 92% 30.12 in 3.0 mi Calm Calm - N/A   Clear
3:15 AM 57.9 °F - 55.4 °F 91% 30.12 in 5.0 mi Calm Calm - N/A   Clear
3:35 AM 57.9 °F - 55.2 °F 91% 30.12 in 4.0 mi Calm Calm - N/A   Clear
3:55 AM 57.6 °F - 55.2 °F 92% 30.12 in 2.0 mi Calm Calm - N/A   Clear
4:15 AM 57.7 °F - 55.4 °F 92% 30.12 in 4.0 mi Calm Calm - N/A   Clear
4:35 AM 56.7 °F - 54.5 °F 92% 30.12 in 5.0 mi Calm Calm - N/A   Clear
4:45 AM 55.4 °F - 53.6 °F 94% 30.12 in 10.0 mi Calm Calm - N/A   Partly Cloudy
6:45 AM 59.0 °F - 55.4 °F 88% 30.14 in 10.0 mi Calm Calm - N/A   Clear
7:45 AM 66.2 °F - 60.8 °F 83% 30.14 in 7.0 mi Calm Calm - N/A   Clear
8:45 AM 73.4 °F - 60.8 °F 65% 30.14 in 7.0 mi Calm Calm - N/A   Clear
9:45 AM 78.8 °F - 57.2 °F 47% 30.14 in 7.0 mi Calm Calm - N/A   Clear
10:45 AM 80.6 °F 80.5 °F 55.4 °F 42% 30.13 in 10.0 mi Variable 5.8 mph - N/A   Scattered Clouds
11:45 AM 82.4 °F 81.7 °F 55.4 °F 39% 30.12 in 10.0 mi Variable 6.9 mph - N/A   Scattered Clouds
12:45 PM 80.6 °F 80.8 °F 57.2 °F 45% 30.11 in 10.0 mi Variable 6.9 mph - N/A   Scattered Clouds
1:45 PM 82.4 °F 82.0 °F 57.2 °F 42% 30.10 in 10.0 mi NE 6.9 mph - N/A   Scattered Clouds
2:45 PM 80.6 °F 80.8 °F 57.2 °F 45% 30.09 in 10.0 mi NE 6.9 mph - N/A   Mostly Cloudy
3:45 PM 82.4 °F 82.0 °F 57.2 °F 42% 30.07 in 10.0 mi ENE 6.9 mph - N/A   Mostly Cloudy
4:45 PM 84.2 °F 83.5 °F 57.2 °F 40% 30.07 in 10.0 mi Calm Calm - N/A   Mostly Cloudy
5:45 PM 84.2 °F 83.0 °F 55.4 °F 37% 30.05 in 10.0 mi SW 5.8 mph - N/A   Mostly Cloudy
6:45 PM 82.4 °F 82.0 °F 57.2 °F 42% 30.05 in 10.0 mi SW 9.2 mph - N/A   Mostly Cloudy
7:45 PM 80.6 °F 80.5 °F 55.4 °F 42% 30.06 in 10.0 mi SSW 8.1 mph - N/A   Mostly Cloudy
8:45 PM 71.6 °F - 62.6 °F 73% 30.07 in 10.0 mi SW 8.1 mph - N/A   Mostly Cloudy
9:15 PM 70.7 °F - 62.2 °F 75% 30.07 in 10.0 mi SW 3.5 mph - N/A   Clear
9:35 PM 70.9 °F - 61.9 °F 73% 30.07 in 10.0 mi Calm Calm - N/A   Clear
9:45 PM 69.8 °F - 62.6 °F 78% 30.08 in 10.0 mi SW 4.6 mph - N/A   Scattered Clouds
9:55 PM 69.1 °F - 62.6 °F 80% 30.08 in 10.0 mi Calm Calm - N/A   Clear
10:15 PM 71.8 °F - 61.7 °F 70% 30.08 in 10.0 mi Calm Calm - N/A   Clear
10:35 PM 71.6 °F - 61.9 °F 71% 30.08 in 10.0 mi SW 3.5 mph - N/A   Clear
10:55 PM 70.5 °F - 62.1 °F 74% 30.08 in 10.0 mi SSW 3.5 mph - N/A   Clear
11:15 PM 70.7 °F - 62.1 °F 74% 30.08 in 10.0 mi SW 3.5 mph - N/A   Clear
11:35 PM 71.6 °F - 61.9 °F 71% 30.09 in 10.0 mi SSW 3.5 mph - N/A   Clear
11:55 PM 71.8 °F - 62.1 °F 71% 30.09 in 10.0 mi Calm Calm - N/A   Clear